Regional Weather Roundup
Issued by NWS

Home | Current Version | Previous Version | Graphics & Text | Print | Product List | Glossary On
Versions: 1 2 3 4 5 6 7 8 9 10 11 12 13 14 15 16 17 18 19 20 21 22 23 24 25 26 27 28 29 30 31 32 33 34 35 36 37 38 39 40 41 42 43 44 45 46 47 48 49 50
000
ASUS43 KOAX 260702
RWRNE

WEATHER ROUNDUP FOR NEBRASKA
NATIONAL WEATHER SERVICE OMAHA NE
200 AM CDT TUE SEP 26 2017

NOTES: SATELLITE DATA IS BEING USED TO AUGMENT CLOUD COVER ABOVE
       12000 FEET.
       "FAIR" INDICATES FEW OR NO CLOUDS BELOW 12,000 FEET WITH NO
       SIGNIFICANT WEATHER AND/OR OBSTRUCTIONS TO VISIBILITY.


NEZ001>004-019>022-054>056-260800-
NEBRASKA PANHANDLE

CITY           SKY/WX    TMP DP  RH WIND       PRES   REMARKS
SCOTTSBLUFF    CLOUDY    43  40  89 E6        30.15R
ALLIANCE       CLOUDY    40  39  97 CALM      30.15R
CHADRON        CLOUDY    40  37  89 W6        30.14R
GORDON         FAIR      39  38  95 CALM      30.13F
KIMBALL        CLEAR     37  36  99 S6        30.16S WCI  32
SIDNEY         CLEAR     38  36  92 SW6       30.16R WCI  33
$$

NEZ057>060-069>072-079>082-260800-
SOUTHWEST NEBRASKA

CITY           SKY/WX    TMP DP  RH WIND       PRES   REMARKS
NORTH PLATTE   CLOUDY    49  47  93 NW5       30.14S
IMPERIAL       CLOUDY    47  45  93 N7        30.15S
LEXINGTON      CLOUDY    50  47  91 NW7       30.12R
MCCOOK         CLOUDY    49  48  97 N9        30.13S
OGALLALA       CLOUDY    49  45  85 E3        30.16R
$$

NEZ005>010-023>029-035>040-094-260800-
NORTH CENTRAL NEBRASKA

CITY           SKY/WX    TMP DP  RH WIND       PRES   REMARKS
VALENTINE      MOCLDY    47  45  93 NW5       30.12R
AINSWORTH      MOCLDY    46  46 100 NW3       30.12R
BROKEN BOW     CLOUDY    49  47  93 N9        30.10S
O`NEILL        DRIZZLE   49  49 100 N8        30.08S
ORD            LGT RAIN  49  46  90 NW8       30.09R
THEDFORD       CLOUDY    47  45  94 CALM      30.15R
$$

NEZ041-046>049-061>064-073>077-083>087-260800-
SOUTH CENTRAL NEBRASKA

CITY           SKY/WX    TMP DP  RH WIND       PRES   REMARKS
GRAND ISLAND   CLOUDY    50  50 100 N9        30.06F
AURORA         CLOUDY    50  50 100 N10       30.05F
HASTINGS       CLOUDY    51  49  92 N10       30.06F
HEBRON         CLOUDY    54  54  99 N10       30.04R
HOLDREGE       CLOUDY    49  47  94 NW9       30.09R
KEARNEY        CLOUDY    50  48  93 NW14      30.09R
YORK           CLOUDY    52  52 100 NW8       30.04F
$$

NEZ011>018-030>034-042>045-260800-
NORTHEAST NEBRASKA

CITY           SKY/WX    TMP DP  RH WIND       PRES   REMARKS
NORFOLK        RAIN      51  51 100 NW9       30.03R FOG
ALBION         RAIN      51  50  96 NW8       30.06R
BLAIR          DRIZZLE   57  56  97 NW6       29.98R
COLUMBUS       LGT RAIN  53  51  93 NW10      30.05R
FREMONT        CLOUDY    55  55  97 NW9       30.01R
TEKAMAH        CLOUDY    57  55  93 NW6       29.98R
WAYNE          DRIZZLE   53  50  91 NW9       30.02S
$$

NEZ050>053-065>068-078-088>093-260800-
SOUTHEAST NEBRASKA

CITY           SKY/WX    TMP DP  RH WIND       PRES   REMARKS
LINCOLN        CLOUDY    57  55  93 NW10      30.01R
OMAHA EPPLEY   LGT RAIN  59  55  87 NW7       29.97S
BEATRICE       CLOUDY    58  57  97 N8        30.01R
FALLS CITY     CLOUDY    66  64  93 CALM      29.94R
NEBRASKA CITY  CLOUDY    61  61 100 N6        29.97R
PLATTSMOUTH    RAIN      58  58 100 NW8       29.97R
$$

NEZ044-045-051>053-067-260800-
OMAHA AREA

CITY           SKY/WX    TMP DP  RH WIND       PRES   REMARKS
OMAHA EPPLEY   LGT RAIN  59  55  87 NW7       29.97S
BLAIR          DRIZZLE   57  56  97 NW6       29.98R
FREMONT        CLOUDY    55  55  97 NW9       30.01R
MILLARD        RAIN      59  58  95 NW8       29.98S
OFFUTT AFB     LGT RAIN  58  56  93 NW8       29.96S
PLATTSMOUTH    RAIN      58  58 100 NW8       29.97R
WAHOO          CLOUDY    56  55  97 NW13      30.00S
$$



USA.gov is the U.S. government's official web portal to all federal, state and local government web resources and services.